Regional Weather Roundup
Issued by NWS Kansas City/Pleasant Hill, MO

Home | Current Version | Previous Version | Text Only | Print | Product List | Glossary On
Versions: 1 2 3 4 5 6 7 8 9 10 11 12 13 14 15 16 17 18 19 20 21 22 23 24 25 26 27
000
ASUS43 KEAX 242310
RWREAX

WEATHER ROUNDUP FOR EASTERN KANSAS AND NORTHWEST MISSOURI
NATIONAL WEATHER SERVICE KANSAS CITY/PLEASANT HILL MO
600 PM CDT FRI MAR 24 2017

KSZ040-057-103>105-MOZ028-029-037-043-250000-
...KANSAS CITY METROPOLITAN AREA...

CITY           SKY/WX    TMP DP  RH WIND       PRES   REMARKS
K.C. INTL      CLOUDY    60  59  96 SE10      29.84F
K.C. DOWNTOWN  CLOUDY    63  59  87 VRB6      29.84S
LEES SUMMIT    LGT RAIN  60  59  96 S9        29.85F
OLATHE - IXD   CLOUDY    63  57  81 SE14      29.83S
OLATHE - OJC   CLOUDY    61  59  93 S10       29.84S
LAWRENCE       CLOUDY    65  59  81 E17       29.80F

$$

MOZ001>008-011>017-020>025-030>033-038>040-044>046-053-054-250000-
...NORTHERN AND CENTRAL MISSOURI...

CITY           SKY/WX    TMP DP  RH WIND       PRES   REMARKS
ST. JOSEPH     CLOUDY    59  57  93 E8        29.85F
MOSBY          DRIZZLE   59  59 100 SE5       29.86S
WARRENSBURG    LGT RAIN  59  55  88 SE8       29.88S
WHITEMAN AFB   LGT RAIN  59  59 100 S14       29.88S
CLINTON        LGT RAIN  59  59 100 SE8       29.89F
SEDALIA        LGT RAIN  61  58  90 S12       29.92R FOG
WARSAW         NOT AVBL
CHILLICOTHE      N/A     57  57 100 E8        29.90F
KIRKSVILLE     RAIN      56  56 100 SE6       29.93F FOG

$$

MOZ041-047>049-056>058-063>065-088>090-097-250000-
...EASTERN AND SOUTHERN MISSOURI...

CITY           SKY/WX    TMP DP  RH WIND       PRES   REMARKS
ST. LOUIS INTL CLOUDY    76  53  44 S12       29.95F
SPIRIT OF STL  CLOUDY    74  53  48 S8        29.93F
COLUMBIA       CLOUDY    61  59  93 N5        29.93R
JEFFERSON CITY CLOUDY    67  56  67 NW9       29.92S
ROLLA          CLOUDY    71  53  52 S16       29.92F
OSAGE BEACH    CLOUDY   N/A N/A N/A W6        29.92F
SPRINGFIELD    RAIN      60  58  92 W3        29.91R FOG
BRANSON        TSTM      61  57  88 SE9       29.91R FOG
JOPLIN         CLOUDY    62  59  90 SE10      29.82S
WEST PLAINS    CLOUDY    71  53  52 S18G24    29.94F

$$

IAZ060-094-KSZ022-034>040-054-083-096-NEZ052-066-093-250000-
...KANSAS...SOUTHEAST NEBRASKA AND IOWA...

CITY           SKY/WX    TMP DP  RH WIND       PRES   REMARKS
TOPEKA         CLOUDY    69  59  70 E12       29.78F
MANHATTAN      CLOUDY    65  56  72 NE14      29.78R
EMPORIA        CLOUDY    67  56  67 SE17G26   29.73F
CHANUTE        CLOUDY    65  56  72 SE15G23   29.79F
WICHITA        TSTM      61  32  33 N7        29.73R
OMAHA          LGT RAIN  44  40  85 N16       29.97R FOG
LINCOLN        CLOUDY    44  41  89 N20G30    29.95F
FALLS CITY     LGT RAIN  54  54 100 N14       29.85F FOG
LAMONI         LGT RAIN  55  54  96 E6        29.90S FOG
DES MOINES     LGT RAIN  49  46  90 NE12      29.95R FOG

$$





USA.gov is the U.S. government's official web portal to all federal, state and local government web resources and services.